Time,TemperatureF,DewpointF,PressureIn,WindDirection,WindDirectionDegrees,WindSpeedMPH,WindSpeedGustMPH,Humidity,HourlyPrecipIn,Conditions,Clouds,dailyrainin,SoftwareType,DateUTC
2013-02-18 00:00:00,15.1,2.3,29.98,NNW,341,3.0,6.0,56,0.00,,,0.00,HR-IXPWINDi_r2_v1.2.,2013-02-18 05:00:00,
2013-02-18 00:05:00,15.1,2.3,29.98,NW,311,3.0,6.0,56,0.00,,,0.00,HR-IXPWINDi_r2_v1.2.,2013-02-18 05:05:00,
2013-02-18 00:10:00,14.9,2.5,29.98,NW,310,0.0,3.0,57,0.00,,,0.00,HR-IXPWINDi_r2_v1.2.,2013-02-18 05:10:00,
2013-02-18 00:15:00,14.5,2.5,29.99,SW,230,0.0,3.0,58,0.00,,,0.00,HR-IXPWINDi_r2_v1.2.,2013-02-18 05:15:00,
2013-02-18 00:20:00,14.6,2.2,29.99,WSW,245,1.0,2.0,57,0.00,,,0.00,HR-IXPWINDi_r2_v1.2.,2013-02-18 05:20:00,
2013-02-18 00:26:00,14.5,2.1,29.99,WSW,245,0.0,2.0,57,0.00,,,0.00,HR-IXPWINDi_r2_v1.2.,2013-02-18 05:26:00,
2013-02-18 00:31:00,14.1,2.5,29.99,WSW,245,0.0,1.0,59,0.00,,,0.00,HR-IXPWINDi_r2_v1.2.,2013-02-18 05:31:00,
2013-02-18 00:36:00,13.7,2.5,30.00,WSW,246,0.0,1.0,60,0.00,,,0.00,HR-IXPWINDi_r2_v1.2.,2013-02-18 05:36:00,
2013-02-18 00:41:00,13.3,2.1,30.00,WSW,245,0.0,0.0,60,0.00,,,0.00,HR-IXPWINDi_r2_v1.2.,2013-02-18 05:41:00,
2013-02-18 00:46:00,13.1,2.3,30.00,SSW,200,0.0,2.0,61,0.00,,,0.00,HR-IXPWINDi_r2_v1.2.,2013-02-18 05:46:00,
2013-02-18 00:51:00,12.8,2.3,30.01,SSW,201,0.0,2.0,62,0.00,,,0.00,HR-IXPWINDi_r2_v1.2.,2013-02-18 05:51:00,
2013-02-18 00:57:00,12.5,2.4,30.01,SSW,202,0.0,1.0,63,0.00,,,0.00,HR-IXPWINDi_r2_v1.2.,2013-02-18 05:57:00,
2013-02-18 01:02:00,12.2,2.4,30.01,SSW,202,0.0,1.0,64,0.00,,,0.00,HR-IXPWINDi_r2_v1.2.,2013-02-18 06:02:00,
2013-02-18 01:07:00,11.9,2.2,30.01,SSE,152,2.0,2.0,64,0.00,,,0.00,HR-IXPWINDi_r2_v1.2.,2013-02-18 06:07:00,
2013-02-18 01:12:00,11.8,3.0,30.02,WSW,248,0.0,2.0,67,0.00,,,0.00,HR-IXPWINDi_r2_v1.2.,2013-02-18 06:12:00,
2013-02-18 01:18:00,11.7,2.6,30.02,WSW,248,0.0,2.0,66,0.00,,,0.00,HR-IXPWINDi_r2_v1.2.,2013-02-18 06:18:00,
2013-02-18 01:23:00,11.4,3.0,30.02,WSW,249,0.0,1.0,68,0.00,,,0.00,HR-IXPWINDi_r2_v1.2.,2013-02-18 06:23:00,
2013-02-18 01:28:00,11.3,3.2,30.02,SW,219,1.0,1.0,69,0.00,,,0.00,HR-IXPWINDi_r2_v1.2.,2013-02-18 06:28:00,
2013-02-18 01:33:00,11.3,2.6,30.02,SW,219,0.0,1.0,67,0.00,,,0.00,HR-IXPWINDi_r2_v1.2.,2013-02-18 06:33:00,
2013-02-18 01:38:00,11.1,2.7,30.03,SW,219,0.0,1.0,68,0.00,,,0.00,HR-IXPWINDi_r2_v1.2.,2013-02-18 06:38:00,
2013-02-18 01:44:00,11.0,2.9,30.02,SW,219,1.0,1.0,69,0.00,,,0.00,HR-IXPWINDi_r2_v1.2.,2013-02-18 06:44:00,
2013-02-18 01:49:00,10.8,2.7,30.03,SW,219,0.0,1.0,69,0.00,,,0.00,HR-IXPWINDi_r2_v1.2.,2013-02-18 06:49:00,
2013-02-18 01:54:00,10.7,3.2,30.03,SW,219,1.0,1.0,71,0.00,,,0.00,HR-IXPWINDi_r2_v1.2.,2013-02-18 06:54:00,
2013-02-18 01:59:00,10.7,3.5,30.04,SW,219,0.0,1.0,72,0.00,,,0.00,HR-IXPWINDi_r2_v1.2.,2013-02-18 06:59:00,
2013-02-18 02:05:00,10.5,3.0,30.04,SW,219,0.0,1.0,71,0.00,,,0.00,HR-IXPWINDi_r2_v1.2.,2013-02-18 07:05:00,
2013-02-18 02:10:00,10.1,3.0,30.04,SW,219,0.0,0.0,72,0.00,,,0.00,HR-IXPWINDi_r2_v1.2.,2013-02-18 07:10:00,
2013-02-18 02:15:00,9.9,3.1,30.04,SW,219,0.0,0.0,73,0.00,,,0.00,HR-IXPWINDi_r2_v1.2.,2013-02-18 07:15:00,
2013-02-18 02:20:00,10.0,3.5,30.04,SW,219,0.0,1.0,74,0.00,,,0.00,HR-IXPWINDi_r2_v1.2.,2013-02-18 07:20:00,
2013-02-18 02:25:00,10.0,3.2,30.05,West,268,0.0,2.0,73,0.00,,,0.00,HR-IXPWINDi_r2_v1.2.,2013-02-18 07:25:00,
2013-02-18 02:31:00,10.2,3.4,30.05,South,170,2.0,3.0,73,0.00,,,0.00,HR-IXPWINDi_r2_v1.2.,2013-02-18 07:31:00,
2013-02-18 02:36:00,10.2,3.7,30.05,SSW,195,0.0,3.0,74,0.00,,,0.00,HR-IXPWINDi_r2_v1.2.,2013-02-18 07:36:00,
2013-02-18 02:41:00,10.1,3.0,30.05,SSW,195,0.0,3.0,72,0.00,,,0.00,HR-IXPWINDi_r2_v1.2.,2013-02-18 07:41:00,
2013-02-18 02:46:00,10.1,3.0,30.06,SSW,197,0.0,2.0,72,0.00,,,0.00,HR-IXPWINDi_r2_v1.2.,2013-02-18 07:46:00,
2013-02-18 02:51:00,10.0,2.9,30.05,SSW,197,0.0,1.0,72,0.00,,,0.00,HR-IXPWINDi_r2_v1.2.,2013-02-18 07:51:00,
2013-02-18 02:56:00,10.0,2.9,30.06,SSE,163,2.0,2.0,72,0.00,,,0.00,HR-IXPWINDi_r2_v1.2.,2013-02-18 07:56:00,
2013-02-18 03:02:00,10.0,3.5,30.06,NW,317,0.0,3.0,74,0.00,,,0.00,HR-IXPWINDi_r2_v1.2.,2013-02-18 08:02:00,
2013-02-18 03:07:00,10.0,2.9,30.06,WSW,239,0.0,3.0,72,0.00,,,0.00,HR-IXPWINDi_r2_v1.2.,2013-02-18 08:07:00,
2013-02-18 03:12:00,10.2,3.4,30.06,SSE,155,0.0,2.0,73,0.00,,,0.00,HR-IXPWINDi_r2_v1.2.,2013-02-18 08:12:00,
2013-02-18 03:17:00,10.5,3.0,30.06,South,169,1.0,1.0,71,0.00,,,0.00,HR-IXPWINDi_r2_v1.2.,2013-02-18 08:17:00,
2013-02-18 03:22:00,11.1,3.6,30.06,South,184,0.0,2.0,71,0.00,,,0.00,HR-IXPWINDi_r2_v1.2.,2013-02-18 08:22:00,
2013-02-18 03:28:00,12.0,3.2,30.06,NW,304,0.0,3.0,67,0.00,,,0.00,HR-IXPWINDi_r2_v1.2.,2013-02-18 08:28:00,
2013-02-18 03:33:00,12.9,3.4,30.06,ESE,121,0.0,6.0,65,0.00,,,0.00,HR-IXPWINDi_r2_v1.2.,2013-02-18 08:33:00,
2013-02-18 03:38:00,13.1,3.6,30.06,South,174,0.0,6.0,65,0.00,,,0.00,HR-IXPWINDi_r2_v1.2.,2013-02-18 08:38:00,
2013-02-18 03:44:00,12.7,3.6,30.07,NNE,13,0.0,4.0,66,0.00,,,0.00,HR-IXPWINDi_r2_v1.2.,2013-02-18 08:44:00,
2013-02-18 03:49:00,13.2,3.4,30.07,WNW,295,0.0,4.0,64,0.00,,,0.00,HR-IXPWINDi_r2_v1.2.,2013-02-18 08:49:00,
2013-02-18 03:54:00,13.0,3.5,30.08,South,186,1.0,4.0,65,0.00,,,0.00,HR-IXPWINDi_r2_v1.2.,2013-02-18 08:54:00,
2013-02-18 03:59:00,12.6,3.2,30.08,SSW,193,0.0,2.0,65,0.00,,,0.00,HR-IXPWINDi_r2_v1.2.,2013-02-18 08:59:00,
2013-02-18 04:04:00,12.5,3.1,30.08,SSW,194,0.0,2.0,65,0.00,,,0.00,HR-IXPWINDi_r2_v1.2.,2013-02-18 09:04:00,
2013-02-18 04:09:00,12.2,2.8,30.09,SSW,193,0.0,2.0,65,0.00,,,0.00,HR-IXPWINDi_r2_v1.2.,2013-02-18 09:09:00,
2013-02-18 04:15:00,12.1,3.0,30.09,South,181,0.0,1.0,66,0.00,,,0.00,HR-IXPWINDi_r2_v1.2.,2013-02-18 09:15:00,
2013-02-18 04:20:00,12.4,3.0,30.10,SSW,195,0.0,2.0,65,0.00,,,0.00,HR-IXPWINDi_r2_v1.2.,2013-02-18 09:20:00,
2013-02-18 04:25:00,12.4,3.0,30.10,SSE,162,0.0,2.0,65,0.00,,,0.00,HR-IXPWINDi_r2_v1.2.,2013-02-18 09:25:00,
2013-02-18 04:30:00,12.3,3.2,30.10,South,181,0.0,2.0,66,0.00,,,0.00,HR-IXPWINDi_r2_v1.2.,2013-02-18 09:30:00,
2013-02-18 04:35:00,12.4,3.3,30.10,SW,220,0.0,1.0,66,0.00,,,0.00,HR-IXPWINDi_r2_v1.2.,2013-02-18 09:35:00,
2013-02-18 04:40:00,12.7,3.2,30.11,North,351,0.0,3.0,65,0.00,,,0.00,HR-IXPWINDi_r2_v1.2.,2013-02-18 09:40:00,
2013-02-18 04:46:00,12.8,3.7,30.11,SSW,197,1.0,3.0,66,0.00,,,0.00,HR-IXPWINDi_r2_v1.2.,2013-02-18 09:46:00,
2013-02-18 04:51:00,12.6,3.2,30.12,WNW,283,2.0,3.0,65,0.00,,,0.00,HR-IXPWINDi_r2_v1.2.,2013-02-18 09:51:00,
2013-02-18 04:56:00,13.3,3.1,30.12,West,276,1.0,8.0,63,0.00,,,0.00,HR-IXPWINDi_r2_v1.2.,2013-02-18 09:56:00,
2013-02-18 05:01:00,13.7,3.2,30.12,West,269,2.0,8.0,62,0.00,,,0.00,HR-IXPWINDi_r2_v1.2.,2013-02-18 10:01:00,
2013-02-18 05:06:00,14.3,3.0,30.13,WSW,253,3.0,6.0,60,0.00,,,0.00,HR-IXPWINDi_r2_v1.2.,2013-02-18 10:06:00,
2013-02-18 05:11:00,15.1,3.1,30.13,NNW,328,6.0,9.0,58,0.00,,,0.00,HR-IXPWINDi_r2_v1.2.,2013-02-18 10:11:00,
2013-02-18 05:17:00,15.7,3.3,30.13,NNW,328,7.0,10.0,57,0.00,,,0.00,HR-IXPWINDi_r2_v1.2.,2013-02-18 10:17:00,
2013-02-18 05:22:00,15.7,3.6,30.13,NNW,328,7.0,10.0,58,0.00,,,0.00,HR-IXPWINDi_r2_v1.2.,2013-02-18 10:22:00,
2013-02-18 05:27:00,15.9,3.1,30.13,West,275,1.0,10.0,56,0.00,,,0.00,HR-IXPWINDi_r2_v1.2.,2013-02-18 10:27:00,
2013-02-18 05:32:00,15.9,3.1,30.14,WNW,290,3.0,9.0,56,0.00,,,0.00,HR-IXPWINDi_r2_v1.2.,2013-02-18 10:32:00,
2013-02-18 05:38:00,15.8,3.0,30.14,West,259,2.0,6.0,56,0.00,,,0.00,HR-IXPWINDi_r2_v1.2.,2013-02-18 10:38:00,
2013-02-18 05:43:00,15.7,2.9,30.15,West,264,1.0,5.0,56,0.00,,,0.00,HR-IXPWINDi_r2_v1.2.,2013-02-18 10:43:00,
2013-02-18 05:48:00,15.6,3.2,30.15,WNW,287,1.0,6.0,57,0.00,,,0.00,HR-IXPWINDi_r2_v1.2.,2013-02-18 10:48:00,
2013-02-18 05:53:00,15.5,3.1,30.15,NW,318,3.0,6.0,57,0.00,,,0.00,HR-IXPWINDi_r2_v1.2.,2013-02-18 10:53:00,
2013-02-18 05:58:00,15.5,3.1,30.16,SW,235,1.0,6.0,57,0.00,,,0.00,HR-IXPWINDi_r2_v1.2.,2013-02-18 10:58:00,
2013-02-18 06:03:00,15.3,2.9,30.16,NW,316,2.0,6.0,57,0.00,,,0.00,HR-IXPWINDi_r2_v1.2.,2013-02-18 11:03:00,
2013-02-18 06:09:00,15.2,2.8,30.16,West,273,3.0,6.0,57,0.00,,,0.00,HR-IXPWINDi_r2_v1.2.,2013-02-18 11:09:00,
2013-02-18 06:14:00,15.4,3.0,30.17,NW,323,3.0,5.0,57,0.00,,,0.00,HR-IXPWINDi_r2_v1.2.,2013-02-18 11:14:00,
2013-02-18 06:19:00,15.3,2.9,30.18,NW,323,1.0,5.0,57,0.00,,,0.00,HR-IXPWINDi_r2_v1.2.,2013-02-18 11:19:00,
2013-02-18 06:24:00,15.4,3.0,30.18,NW,310,3.0,6.0,57,0.00,,,0.00,HR-IXPWINDi_r2_v1.2.,2013-02-18 11:24:00,
2013-02-18 06:29:00,15.6,2.8,30.18,WSW,258,3.0,9.0,56,0.00,,,0.00,HR-IXPWINDi_r2_v1.2.,2013-02-18 11:29:00,
2013-02-18 06:35:00,15.6,2.8,30.18,WNW,290,2.0,9.0,56,0.00,,,0.00,HR-IXPWINDi_r2_v1.2.,2013-02-18 11:35:00,
2013-02-18 06:40:00,15.6,2.8,30.19,WNW,302,4.0,10.0,56,0.00,,,0.00,HR-IXPWINDi_r2_v1.2.,2013-02-18 11:40:00,
2013-02-18 06:45:00,15.6,2.8,30.19,NW,304,3.0,16.0,56,0.00,,,0.00,HR-IXPWINDi_r2_v1.2.,2013-02-18 11:45:00,
2013-02-18 06:50:00,15.5,2.7,30.19,NW,313,3.0,16.0,56,0.00,,,0.00,HR-IXPWINDi_r2_v1.2.,2013-02-18 11:50:00,
2013-02-18 06:55:00,15.6,2.8,30.19,SW,231,2.0,10.0,56,0.00,,,0.00,HR-IXPWINDi_r2_v1.2.,2013-02-18 11:55:00,
2013-02-18 07:01:00,15.6,2.8,30.20,WSW,242,3.0,11.0,56,0.00,,,0.00,HR-IXPWINDi_r2_v1.2.,2013-02-18 12:01:00,
2013-02-18 07:06:00,15.5,2.7,30.20,SW,221,5.0,11.0,56,0.00,,,0.00,HR-IXPWINDi_r2_v1.2.,2013-02-18 12:06:00,
2013-02-18 07:11:00,15.5,2.7,30.20,SW,216,5.0,8.0,56,0.00,,,0.00,HR-IXPWINDi_r2_v1.2.,2013-02-18 12:11:00,
2013-02-18 07:16:00,15.5,2.7,30.21,NE,52,2.0,8.0,56,0.00,,,0.00,HR-IXPWINDi_r2_v1.2.,2013-02-18 12:16:00,
2013-02-18 07:22:00,15.5,3.1,30.21,NNW,328,2.0,7.0,57,0.00,,,0.00,HR-IXPWINDi_r2_v1.2.,2013-02-18 12:22:00,
2013-02-18 07:27:00,15.6,3.2,30.21,SW,229,2.0,9.0,57,0.00,,,0.00,HR-IXPWINDi_r2_v1.2.,2013-02-18 12:27:00,
2013-02-18 07:32:00,15.7,3.3,30.20,South,169,3.0,9.0,57,0.00,,,0.00,HR-IXPWINDi_r2_v1.2.,2013-02-18 12:32:00,
2013-02-18 07:37:00,15.8,3.3,30.21,SSW,201,3.0,6.0,57,0.00,,,0.00,HR-IXPWINDi_r2_v1.2.,2013-02-18 12:37:00,
2013-02-18 07:42:00,15.8,3.3,30.21,SSW,211,4.0,7.0,57,0.00,,,0.00,HR-IXPWINDi_r2_v1.2.,2013-02-18 12:42:00,
2013-02-18 07:48:00,16.0,3.5,30.21,SW,216,1.0,7.0,57,0.00,,,0.00,HR-IXPWINDi_r2_v1.2.,2013-02-18 12:48:00,
2013-02-18 07:53:00,16.3,3.4,30.21,SW,216,3.0,8.0,56,0.00,,,0.00,HR-IXPWINDi_r2_v1.2.,2013-02-18 12:53:00,
2013-02-18 07:58:00,16.6,3.7,30.21,SSW,198,3.0,8.0,56,0.00,,,0.00,HR-IXPWINDi_r2_v1.2.,2013-02-18 12:58:00,
2013-02-18 08:03:00,16.8,3.9,30.20,SSW,205,2.0,8.0,56,0.00,,,0.00,HR-IXPWINDi_r2_v1.2.,2013-02-18 13:03:00,
2013-02-18 08:09:00,17.1,4.2,30.20,SE,145,0.0,8.0,56,0.00,,,0.00,HR-IXPWINDi_r2_v1.2.,2013-02-18 13:09:00,
2013-02-18 08:14:00,17.5,4.6,30.20,SW,216,0.0,6.0,56,0.00,,,0.00,HR-IXPWINDi_r2_v1.2.,2013-02-18 13:14:00,
2013-02-18 08:19:00,17.9,3.7,30.21,WNW,290,6.0,11.0,53,0.00,,,0.00,HR-IXPWINDi_r2_v1.2.,2013-02-18 13:19:00,
2013-02-18 08:24:00,18.5,3.9,30.21,ESE,117,5.0,11.0,52,0.00,,,0.00,HR-IXPWINDi_r2_v1.2.,2013-02-18 13:24:00,
2013-02-18 08:29:00,18.8,3.3,30.21,WSW,242,1.0,10.0,50,0.00,,,0.00,HR-IXPWINDi_r2_v1.2.,2013-02-18 13:29:00,
2013-02-18 08:35:00,19.2,3.7,30.21,SSW,200,4.0,11.0,50,0.00,,,0.00,HR-IXPWINDi_r2_v1.2.,2013-02-18 13:35:00,
2013-02-18 08:40:00,19.4,3.9,30.21,NNW,345,2.0,11.0,50,0.00,,,0.00,HR-IXPWINDi_r2_v1.2.,2013-02-18 13:40:00,
2013-02-18 08:45:00,19.7,3.3,30.21,SW,226,9.0,13.0,48,0.00,,,0.00,HR-IXPWINDi_r2_v1.2.,2013-02-18 13:45:00,
2013-02-18 08:50:00,20.0,3.5,30.21,NW,309,3.0,13.0,48,0.00,,,0.00,HR-IXPWINDi_r2_v1.2.,2013-02-18 13:50:00,
2013-02-18 08:55:00,20.2,2.8,30.20,South,190,9.0,13.0,46,0.00,,,0.00,HR-IXPWINDi_r2_v1.2.,2013-02-18 13:55:00,
2013-02-18 09:01:00,20.5,3.1,30.20,WSW,252,4.0,13.0,46,0.00,,,0.00,HR-IXPWINDi_r2_v1.2.,2013-02-18 14:01:00,
2013-02-18 09:06:00,21.0,3.5,30.19,SW,225,3.0,11.0,46,0.00,,,0.00,HR-IXPWINDi_r2_v1.2.,2013-02-18 14:06:00,
2013-02-18 09:11:00,21.3,2.9,30.19,NNW,335,5.0,10.0,44,0.00,,,0.00,HR-IXPWINDi_r2_v1.2.,2013-02-18 14:11:00,
2013-02-18 09:16:00,21.6,3.6,30.19,WNW,297,3.0,13.0,45,0.00,,,0.00,HR-IXPWINDi_r2_v1.2.,2013-02-18 14:16:00,
2013-02-18 09:21:00,22.0,4.0,30.19,West,273,4.0,13.0,45,0.00,,,0.00,HR-IXPWINDi_r2_v1.2.,2013-02-18 14:21:00,
2013-02-18 09:26:00,22.0,3.0,30.19,SSE,167,1.0,15.0,43,0.00,,,0.00,HR-IXPWINDi_r2_v1.2.,2013-02-18 14:26:00,
2013-02-18 09:32:00,22.2,3.2,30.19,NW,323,11.0,15.0,43,0.00,,,0.00,HR-IXPWINDi_r2_v1.2.,2013-02-18 14:32:00,
2013-02-18 09:37:00,22.4,3.4,30.20,NE,50,3.0,14.0,43,0.00,,,0.00,HR-IXPWINDi_r2_v1.2.,2013-02-18 14:37:00,
2013-02-18 09:42:00,22.5,2.9,30.20,WNW,302,1.0,16.0,42,0.00,,,0.00,HR-IXPWINDi_r2_v1.2.,2013-02-18 14:42:00,
2013-02-18 09:47:00,22.7,3.6,30.20,SSW,211,9.0,16.0,43,0.00,,,0.00,HR-IXPWINDi_r2_v1.2.,2013-02-18 14:47:00,
2013-02-18 09:52:00,23.0,2.9,30.20,WNW,302,9.0,12.0,41,0.00,,,0.00,HR-IXPWINDi_r2_v1.2.,2013-02-18 14:52:00,
2013-02-18 09:57:00,23.2,3.1,30.20,WNW,287,8.0,17.0,41,0.00,,,0.00,HR-IXPWINDi_r2_v1.2.,2013-02-18 14:57:00,
2013-02-18 10:03:00,23.5,2.8,30.21,WNW,297,7.0,17.0,40,0.00,,,0.00,HR-IXPWINDi_r2_v1.2.,2013-02-18 15:03:00,
2013-02-18 10:08:00,23.8,4.1,30.21,WSW,242,1.0,11.0,42,0.00,,,0.00,HR-IXPWINDi_r2_v1.2.,2013-02-18 15:08:00,
2013-02-18 10:13:00,24.0,3.2,30.21,NW,314,4.0,11.0,40,0.00,,,0.00,HR-IXPWINDi_r2_v1.2.,2013-02-18 15:13:00,
2013-02-18 10:18:00,24.2,3.4,30.21,NW,314,6.0,14.0,40,0.00,,,0.00,HR-IXPWINDi_r2_v1.2.,2013-02-18 15:18:00,
2013-02-18 10:23:00,24.3,3.5,30.21,SW,218,6.0,14.0,40,0.00,,,0.00,HR-IXPWINDi_r2_v1.2.,2013-02-18 15:23:00,
2013-02-18 10:28:00,24.6,3.2,30.21,WSW,258,2.0,13.0,39,0.00,,,0.00,HR-IXPWINDi_r2_v1.2.,2013-02-18 15:28:00,
2013-02-18 10:33:00,25.1,4.2,30.21,WSW,247,1.0,10.0,40,0.00,,,0.00,HR-IXPWINDi_r2_v1.2.,2013-02-18 15:33:00,
2013-02-18 10:39:00,25.4,3.4,30.20,WNW,286,8.0,14.0,38,0.00,,,0.00,HR-IXPWINDi_r2_v1.2.,2013-02-18 15:39:00,
2013-02-18 10:44:00,25.7,3.7,30.21,WNW,287,6.0,14.0,38,0.00,,,0.00,HR-IXPWINDi_r2_v1.2.,2013-02-18 15:44:00,
2013-02-18 10:49:00,25.6,2.4,30.21,SSW,207,2.0,11.0,36,0.00,,,0.00,HR-IXPWINDi_r2_v1.2.,2013-02-18 15:49:00,
2013-02-18 10:54:00,25.7,3.1,30.21,WSW,240,7.0,15.0,37,0.00,,,0.00,HR-IXPWINDi_r2_v1.2.,2013-02-18 15:54:00,
2013-02-18 10:59:00,25.9,3.3,30.21,SW,221,7.0,15.0,37,0.00,,,0.00,HR-IXPWINDi_r2_v1.2.,2013-02-18 15:59:00,
2013-02-18 11:04:00,26.1,3.5,30.21,WNW,290,5.0,14.0,37,0.00,,,0.00,HR-IXPWINDi_r2_v1.2.,2013-02-18 16:04:00,
2013-02-18 11:09:00,25.9,2.7,30.21,NNW,334,8.0,14.0,36,0.00,,,0.00,HR-IXPWINDi_r2_v1.2.,2013-02-18 16:09:00,
2013-02-18 11:15:00,25.9,3.3,30.21,NNW,330,3.0,18.0,37,0.00,,,0.00,HR-IXPWINDi_r2_v1.2.,2013-02-18 16:15:00,
2013-02-18 11:20:00,26.3,3.0,30.21,West,273,9.0,18.0,36,0.00,,,0.00,HR-IXPWINDi_r2_v1.2.,2013-02-18 16:20:00,
2013-02-18 11:25:00,26.5,3.8,30.20,SE,135,4.0,12.0,37,0.00,,,0.00,HR-IXPWINDi_r2_v1.2.,2013-02-18 16:25:00,
2013-02-18 11:30:00,27.0,3.7,30.20,WSW,252,3.0,11.0,36,0.00,,,0.00,HR-IXPWINDi_r2_v1.2.,2013-02-18 16:30:00,
2013-02-18 11:35:00,27.4,4.0,30.21,ENE,74,0.0,10.0,36,0.00,,,0.00,HR-IXPWINDi_r2_v1.2.,2013-02-18 16:35:00,
2013-02-18 11:40:00,27.5,4.1,30.20,WNW,295,9.0,9.0,36,0.00,,,0.00,HR-IXPWINDi_r2_v1.2.,2013-02-18 16:40:00,
2013-02-18 11:45:00,27.8,4.4,30.20,WNW,290,7.0,9.0,36,0.00,,,0.00,HR-IXPWINDi_r2_v1.2.,2013-02-18 16:45:00,
2013-02-18 11:50:00,28.3,4.8,30.20,NW,316,5.0,9.0,36,0.00,,,0.00,HR-IXPWINDi_r2_v1.2.,2013-02-18 16:50:00,
2013-02-18 11:56:00,28.3,4.2,30.20,WSW,238,2.0,10.0,35,0.00,,,0.00,HR-IXPWINDi_r2_v1.2.,2013-02-18 16:56:00,
2013-02-18 12:01:00,28.6,3.8,30.20,West,263,8.0,10.0,34,0.00,,,0.00,HR-IXPWINDi_r2_v1.2.,2013-02-18 17:01:00,
2013-02-18 12:06:00,29.0,4.8,30.20,NNW,341,6.0,8.0,35,0.00,,,0.00,HR-IXPWINDi_r2_v1.2.,2013-02-18 17:06:00,
2013-02-18 12:11:00,29.2,5.0,30.20,NNW,348,3.0,9.0,35,0.00,,,0.00,HR-IXPWINDi_r2_v1.2.,2013-02-18 17:11:00,
2013-02-18 12:16:00,29.4,5.2,30.19,NNW,340,3.0,9.0,35,0.00,,,0.00,HR-IXPWINDi_r2_v1.2.,2013-02-18 17:16:00,
2013-02-18 12:21:00,29.7,5.4,30.19,WNW,303,2.0,9.0,35,0.00,,,0.00,HR-IXPWINDi_r2_v1.2.,2013-02-18 17:21:00,
2013-02-18 12:26:00,30.1,4.5,30.19,NNW,345,4.0,8.0,33,0.00,,,0.00,HR-IXPWINDi_r2_v1.2.,2013-02-18 17:26:00,
2013-02-18 12:32:00,30.2,4.6,30.19,SW,221,0.0,10.0,33,0.00,,,0.00,HR-IXPWINDi_r2_v1.2.,2013-02-18 17:32:00,
2013-02-18 12:37:00,31.7,6.6,30.19,SW,231,0.0,10.0,34,0.00,,,0.00,HR-IXPWINDi_r2_v1.2.,2013-02-18 17:37:00,
2013-02-18 12:42:00,31.4,5.0,30.19,NNW,339,4.0,8.0,32,0.00,,,0.00,HR-IXPWINDi_r2_v1.2.,2013-02-18 17:42:00,
2013-02-18 12:47:00,31.0,5.3,30.19,SSW,197,2.0,10.0,33,0.00,,,0.00,HR-IXPWINDi_r2_v1.2.,2013-02-18 17:47:00,
2013-02-18 12:52:00,31.6,6.5,30.19,WSW,242,2.0,10.0,34,0.00,,,0.00,HR-IXPWINDi_r2_v1.2.,2013-02-18 17:52:00,
2013-02-18 12:58:00,32.5,5.3,30.18,WNW,302,2.0,6.0,31,0.00,,,0.00,HR-IXPWINDi_r2_v1.2.,2013-02-18 17:58:00,
2013-02-18 13:03:00,32.7,5.4,30.18,SSW,193,1.0,5.0,31,0.00,,,0.00,HR-IXPWINDi_r2_v1.2.,2013-02-18 18:03:00,
2013-02-18 13:08:00,33.6,6.2,30.18,West,264,1.0,4.0,31,0.00,,,0.00,HR-IXPWINDi_r2_v1.2.,2013-02-18 18:08:00,
2013-02-18 13:13:00,32.4,4.5,30.18,SW,214,2.0,7.0,30,0.00,,,0.00,HR-IXPWINDi_r2_v1.2.,2013-02-18 18:13:00,
2013-02-18 13:18:00,32.3,5.1,30.18,WSW,241,1.0,7.0,31,0.00,,,0.00,HR-IXPWINDi_r2_v1.2.,2013-02-18 18:18:00,
2013-02-18 13:24:00,32.5,5.3,30.18,SW,228,0.0,7.0,31,0.00,,,0.00,HR-IXPWINDi_r2_v1.2.,2013-02-18 18:24:00,
2013-02-18 13:29:00,33.4,6.8,30.17,SSW,199,4.0,7.0,32,0.00,,,0.00,HR-IXPWINDi_r2_v1.2.,2013-02-18 18:29:00,
2013-02-18 13:34:00,33.6,6.9,30.17,SSW,210,6.0,8.0,32,0.00,,,0.00,HR-IXPWINDi_r2_v1.2.,2013-02-18 18:34:00,
2013-02-18 13:39:00,33.4,8.1,30.17,NW,318,3.0,8.0,34,0.00,,,0.00,HR-IXPWINDi_r2_v1.2.,2013-02-18 18:39:00,
2013-02-18 13:44:00,33.6,6.2,30.17,NNW,337,3.0,7.0,31,0.00,,,0.00,HR-IXPWINDi_r2_v1.2.,2013-02-18 18:44:00,
2013-02-18 13:50:00,33.6,6.2,30.17,WSW,252,1.0,4.0,31,0.00,,,0.00,HR-IXPWINDi_r2_v1.2.,2013-02-18 18:50:00,
2013-02-18 13:55:00,34.0,7.3,30.16,WSW,238,2.0,5.0,32,0.00,,,0.00,HR-IXPWINDi_r2_v1.2.,2013-02-18 18:55:00,
2013-02-18 14:00:00,33.9,5.8,30.16,SW,228,1.0,5.0,30,0.00,,,0.00,HR-IXPWINDi_r2_v1.2.,2013-02-18 19:00:00,
2013-02-18 14:05:00,34.0,6.6,30.17,SSW,200,4.0,5.0,31,0.00,,,0.00,HR-IXPWINDi_r2_v1.2.,2013-02-18 19:05:00,
2013-02-18 14:10:00,33.9,6.5,30.16,SW,214,0.0,8.0,31,0.00,,,0.00,HR-IXPWINDi_r2_v1.2.,2013-02-18 19:10:00,
2013-02-18 14:15:00,34.6,7.8,30.16,WSW,245,1.0,8.0,32,0.00,,,0.00,HR-IXPWINDi_r2_v1.2.,2013-02-18 19:15:00,
2013-02-18 14:20:00,34.9,6.7,30.16,SSW,197,3.0,6.0,30,0.00,,,0.00,HR-IXPWINDi_r2_v1.2.,2013-02-18 19:20:00,
2013-02-18 14:26:00,35.1,7.5,30.16,SSW,195,3.0,6.0,31,0.00,,,0.00,HR-IXPWINDi_r2_v1.2.,2013-02-18 19:26:00,
2013-02-18 14:31:00,35.3,6.3,30.16,West,280,0.0,5.0,29,0.00,,,0.00,HR-IXPWINDi_r2_v1.2.,2013-02-18 19:31:00,
2013-02-18 14:36:00,35.7,5.8,30.16,SSW,211,3.0,6.0,28,0.00,,,0.00,HR-IXPWINDi_r2_v1.2.,2013-02-18 19:36:00,
2013-02-18 14:41:00,35.6,7.3,30.16,SW,214,3.0,6.0,30,0.00,,,0.00,HR-IXPWINDi_r2_v1.2.,2013-02-18 19:41:00,
2013-02-18 14:46:00,36.0,6.1,30.16,SSE,159,3.0,6.0,28,0.00,,,0.00,HR-IXPWINDi_r2_v1.2.,2013-02-18 19:46:00,
2013-02-18 14:51:00,36.0,6.1,30.16,SW,228,1.0,4.0,28,0.00,,,0.00,HR-IXPWINDi_r2_v1.2.,2013-02-18 19:51:00,
2013-02-18 14:56:00,35.8,6.7,30.16,South,169,1.0,4.0,29,0.00,,,0.00,HR-IXPWINDi_r2_v1.2.,2013-02-18 19:56:00,
2013-02-18 15:02:00,35.4,6.3,30.16,SSW,209,0.0,3.0,29,0.00,,,0.00,HR-IXPWINDi_r2_v1.2.,2013-02-18 20:02:00,
2013-02-18 15:07:00,35.6,6.5,30.16,South,183,1.0,4.0,29,0.00,,,0.00,HR-IXPWINDi_r2_v1.2.,2013-02-18 20:07:00,
2013-02-18 15:12:00,35.9,6.8,30.16,WSW,258,1.0,4.0,29,0.00,,,0.00,HR-IXPWINDi_r2_v1.2.,2013-02-18 20:12:00,
2013-02-18 15:18:00,36.0,6.9,30.16,SSW,211,1.0,4.0,29,0.00,,,0.00,HR-IXPWINDi_r2_v1.2.,2013-02-18 20:18:00,
2013-02-18 15:23:00,35.6,6.5,30.16,North,355,3.0,5.0,29,0.00,,,0.00,HR-IXPWINDi_r2_v1.2.,2013-02-18 20:23:00,
2013-02-18 15:28:00,34.6,6.4,30.16,NNW,345,3.0,5.0,30,0.00,,,0.00,HR-IXPWINDi_r2_v1.2.,2013-02-18 20:28:00,
2013-02-18 15:33:00,34.5,6.3,30.16,North,5,2.0,5.0,30,0.00,,,0.00,HR-IXPWINDi_r2_v1.2.,2013-02-18 20:33:00,
2013-02-18 15:38:00,34.6,5.7,30.16,ENE,62,0.0,3.0,29,0.00,,,0.00,HR-IXPWINDi_r2_v1.2.,2013-02-18 20:38:00,
2013-02-18 15:43:00,35.0,6.0,30.16,ENE,67,0.0,2.0,29,0.00,,,0.00,HR-IXPWINDi_r2_v1.2.,2013-02-18 20:43:00,
2013-02-18 15:49:00,35.0,6.7,30.16,SE,143,1.0,2.0,30,0.00,,,0.00,HR-IXPWINDi_r2_v1.2.,2013-02-18 20:49:00,
2013-02-18 15:54:00,35.4,7.8,30.17,SW,217,3.0,3.0,31,0.00,,,0.00,HR-IXPWINDi_r2_v1.2.,2013-02-18 20:54:00,
2013-02-18 15:59:00,35.6,6.5,30.16,SSW,207,1.0,4.0,29,0.00,,,0.00,HR-IXPWINDi_r2_v1.2.,2013-02-18 20:59:00,
2013-02-18 16:04:00,35.6,6.5,30.16,SSW,197,0.0,4.0,29,0.00,,,0.00,HR-IXPWINDi_r2_v1.2.,2013-02-18 21:04:00,
2013-02-18 16:09:00,35.6,7.3,30.16,SSW,192,3.0,4.0,30,0.00,,,0.00,HR-IXPWINDi_r2_v1.2.,2013-02-18 21:09:00,
2013-02-18 16:15:00,35.3,6.3,30.16,WNW,287,2.0,4.0,29,0.00,,,0.00,HR-IXPWINDi_r2_v1.2.,2013-02-18 21:15:00,
2013-02-18 16:20:00,35.1,5.3,30.16,WNW,296,0.0,4.0,28,0.00,,,0.00,HR-IXPWINDi_r2_v1.2.,2013-02-18 21:20:00,
2013-02-18 16:25:00,34.9,6.7,30.16,WSW,254,1.0,5.0,30,0.00,,,0.00,HR-IXPWINDi_r2_v1.2.,2013-02-18 21:25:00,
2013-02-18 16:30:00,35.0,6.0,30.16,SW,218,2.0,6.0,29,0.00,,,0.00,HR-IXPWINDi_r2_v1.2.,2013-02-18 21:30:00,
2013-02-18 16:35:00,35.0,6.7,30.16,South,188,2.0,6.0,30,0.00,,,0.00,HR-IXPWINDi_r2_v1.2.,2013-02-18 21:35:00,
2013-02-18 16:40:00,34.9,7.4,30.16,SW,221,1.0,5.0,31,0.00,,,0.00,HR-IXPWINDi_r2_v1.2.,2013-02-18 21:40:00,
2013-02-18 16:46:00,34.8,6.6,30.16,SSW,200,3.0,5.0,30,0.00,,,0.00,HR-IXPWINDi_r2_v1.2.,2013-02-18 21:46:00,
2013-02-18 16:51:00,34.4,6.9,30.16,SW,223,3.0,5.0,31,0.00,,,0.00,HR-IXPWINDi_r2_v1.2.,2013-02-18 21:51:00,
2013-02-18 16:56:00,34.0,6.6,30.16,SSW,209,2.0,5.0,31,0.00,,,0.00,HR-IXPWINDi_r2_v1.2.,2013-02-18 21:56:00,
2013-02-18 17:01:00,33.7,7.7,30.16,SSW,209,0.0,5.0,33,0.00,,,0.00,HR-IXPWINDi_r2_v1.2.,2013-02-18 22:01:00,
2013-02-18 17:06:00,33.5,7.5,30.17,SSW,207,0.0,3.0,33,0.00,,,0.00,HR-IXPWINDi_r2_v1.2.,2013-02-18 22:06:00,
2013-02-18 17:12:00,33.2,7.9,30.16,South,188,2.0,3.0,34,0.00,,,0.00,HR-IXPWINDi_r2_v1.2.,2013-02-18 22:12:00,
2013-02-18 17:17:00,32.8,7.6,30.17,SW,216,1.0,3.0,34,0.00,,,0.00,HR-IXPWINDi_r2_v1.2.,2013-02-18 22:17:00,
2013-02-18 17:22:00,32.5,8.6,30.17,SSW,205,0.0,3.0,36,0.00,,,0.00,HR-IXPWINDi_r2_v1.2.,2013-02-18 22:22:00,
2013-02-18 17:27:00,32.1,8.8,30.17,SSW,200,1.0,4.0,37,0.00,,,0.00,HR-IXPWINDi_r2_v1.2.,2013-02-18 22:27:00,
2013-02-18 17:32:00,31.8,9.1,30.17,SSW,198,0.0,5.0,38,0.00,,,0.00,HR-IXPWINDi_r2_v1.2.,2013-02-18 22:32:00,
2013-02-18 17:38:00,31.6,8.9,30.17,SSW,197,0.0,5.0,38,0.00,,,0.00,HR-IXPWINDi_r2_v1.2.,2013-02-18 22:38:00,
2013-02-18 17:43:00,31.3,9.3,30.17,SW,225,2.0,4.0,39,0.00,,,0.00,HR-IXPWINDi_r2_v1.2.,2013-02-18 22:43:00,
2013-02-18 17:48:00,31.0,9.5,30.17,SSW,211,0.0,4.0,40,0.00,,,0.00,HR-IXPWINDi_r2_v1.2.,2013-02-18 22:48:00,
2013-02-18 17:53:00,30.7,9.3,30.18,South,188,2.0,4.0,40,0.00,,,0.00,HR-IXPWINDi_r2_v1.2.,2013-02-18 22:53:00,
2013-02-18 17:59:00,30.4,9.0,30.18,South,169,0.0,3.0,40,0.00,,,0.00,HR-IXPWINDi_r2_v1.2.,2013-02-18 22:59:00,
2013-02-18 18:04:00,30.1,10.3,30.18,ENE,62,1.0,3.0,43,0.00,,,0.00,HR-IXPWINDi_r2_v1.2.,2013-02-18 23:04:00,
2013-02-18 18:09:00,29.5,10.8,30.18,SSE,166,0.0,2.0,45,0.00,,,0.00,HR-IXPWINDi_r2_v1.2.,2013-02-18 23:09:00,
2013-02-18 18:14:00,29.5,8.7,30.18,SSW,204,0.0,2.0,41,0.00,,,0.00,HR-IXPWINDi_r2_v1.2.,2013-02-18 23:14:00,
2013-02-18 18:20:00,29.3,9.1,30.19,SSW,206,1.0,2.0,42,0.00,,,0.00,HR-IXPWINDi_r2_v1.2.,2013-02-18 23:20:00,
2013-02-18 18:25:00,29.0,9.3,30.19,SW,216,1.0,2.0,43,0.00,,,0.00,HR-IXPWINDi_r2_v1.2.,2013-02-18 23:25:00,
2013-02-18 18:30:00,29.3,9.6,30.19,South,191,4.0,6.0,43,0.00,,,0.00,HR-IXPWINDi_r2_v1.2.,2013-02-18 23:30:00,
2013-02-18 18:35:00,29.8,9.5,30.19,SSW,205,0.0,6.0,42,0.00,,,0.00,HR-IXPWINDi_r2_v1.2.,2013-02-18 23:35:00,
2013-02-18 18:41:00,29.5,9.3,30.18,SSW,205,0.0,6.0,42,0.00,,,0.00,HR-IXPWINDi_r2_v1.2.,2013-02-18 23:41:00,
2013-02-18 18:46:00,29.0,9.9,30.18,SSW,205,0.0,1.0,44,0.00,,,0.00,HR-IXPWINDi_r2_v1.2.,2013-02-18 23:46:00,
2013-02-18 18:51:00,28.6,10.0,30.18,SSW,205,0.0,1.0,45,0.00,,,0.00,HR-IXPWINDi_r2_v1.2.,2013-02-18 23:51:00,
2013-02-18 18:56:00,28.7,9.6,30.19,SW,217,0.0,3.0,44,0.00,,,0.00,HR-IXPWINDi_r2_v1.2.,2013-02-18 23:56:00,
2013-02-18 19:01:00,28.8,8.6,30.19,SSW,211,1.0,3.0,42,0.00,,,0.00,HR-IXPWINDi_r2_v1.2.,2013-02-19 00:01:00,
2013-02-18 19:07:00,28.6,9.0,30.19,SSW,211,1.0,1.0,43,0.00,,,0.00,HR-IXPWINDi_r2_v1.2.,2013-02-19 00:07:00,
2013-02-18 19:12:00,28.5,8.9,30.18,SSW,204,3.0,5.0,43,0.00,,,0.00,HR-IXPWINDi_r2_v1.2.,2013-02-19 00:12:00,
2013-02-18 19:17:00,28.4,8.8,30.18,SSW,200,3.0,5.0,43,0.00,,,0.00,HR-IXPWINDi_r2_v1.2.,2013-02-19 00:17:00,
2013-02-18 19:22:00,28.4,9.3,30.18,SSW,202,3.0,4.0,44,0.00,,,0.00,HR-IXPWINDi_r2_v1.2.,2013-02-19 00:22:00,
2013-02-18 19:27:00,28.3,10.2,30.18,SSW,197,1.0,4.0,46,0.00,,,0.00,HR-IXPWINDi_r2_v1.2.,2013-02-19 00:27:00,
2013-02-18 19:32:00,28.4,8.8,30.18,SSW,200,1.0,4.0,43,0.00,,,0.00,HR-IXPWINDi_r2_v1.2.,2013-02-19 00:32:00,
2013-02-18 19:38:00,28.6,9.5,30.18,SSW,200,0.0,4.0,44,0.00,,,0.00,HR-IXPWINDi_r2_v1.2.,2013-02-19 00:38:00,
2013-02-18 19:43:00,28.2,9.6,30.18,SSW,199,0.0,2.0,45,0.00,,,0.00,HR-IXPWINDi_r2_v1.2.,2013-02-19 00:43:00,
2013-02-18 19:48:00,27.7,9.7,30.18,SSW,200,0.0,1.0,46,0.00,,,0.00,HR-IXPWINDi_r2_v1.2.,2013-02-19 00:48:00,
2013-02-18 19:53:00,27.5,10.4,30.19,SSW,200,0.0,0.0,48,0.00,,,0.00,HR-IXPWINDi_r2_v1.2.,2013-02-19 00:53:00,
2013-02-18 19:58:00,26.9,9.9,30.19,SSW,199,0.0,0.0,48,0.00,,,0.00,HR-IXPWINDi_r2_v1.2.,2013-02-19 00:58:00,
2013-02-18 20:04:00,26.6,10.1,30.19,SSW,199,0.0,1.0,49,0.00,,,0.00,HR-IXPWINDi_r2_v1.2.,2013-02-19 01:04:00,
2013-02-18 20:09:00,26.8,10.7,30.19,SSW,199,0.0,1.0,50,0.00,,,0.00,HR-IXPWINDi_r2_v1.2.,2013-02-19 01:09:00,
2013-02-18 20:14:00,26.7,9.7,30.19,SSW,200,0.0,1.0,48,0.00,,,0.00,HR-IXPWINDi_r2_v1.2.,2013-02-19 01:14:00,
2013-02-18 20:20:00,26.4,11.2,30.19,SSW,200,0.0,1.0,52,0.00,,,0.00,HR-IXPWINDi_r2_v1.2.,2013-02-19 01:20:00,
2013-02-18 20:25:00,26.2,10.6,30.19,SSW,200,1.0,1.0,51,0.00,,,0.00,HR-IXPWINDi_r2_v1.2.,2013-02-19 01:25:00,
2013-02-18 20:30:00,26.2,10.1,30.19,SSW,200,0.0,1.0,50,0.00,,,0.00,HR-IXPWINDi_r2_v1.2.,2013-02-19 01:30:00,
2013-02-18 20:35:00,26.1,11.8,30.20,SSW,200,1.0,1.0,54,0.00,,,0.00,HR-IXPWINDi_r2_v1.2.,2013-02-19 01:35:00,
2013-02-18 20:40:00,25.7,11.0,30.20,SSW,199,0.0,1.0,53,0.00,,,0.00,HR-IXPWINDi_r2_v1.2.,2013-02-19 01:40:00,
2013-02-18 20:46:00,25.7,9.7,30.20,SSW,200,0.0,1.0,50,0.00,,,0.00,HR-IXPWINDi_r2_v1.2.,2013-02-19 01:46:00,
2013-02-18 20:51:00,25.6,10.0,30.20,SSW,199,0.0,0.0,51,0.00,,,0.00,HR-IXPWINDi_r2_v1.2.,2013-02-19 01:51:00,
2013-02-18 20:56:00,25.5,10.4,30.19,West,265,1.0,1.0,52,0.00,,,0.00,HR-IXPWINDi_r2_v1.2.,2013-02-19 01:56:00,
2013-02-18 21:01:00,25.4,10.7,30.19,West,265,0.0,1.0,53,0.00,,,0.00,HR-IXPWINDi_r2_v1.2.,2013-02-19 02:01:00,
2013-02-18 21:06:00,25.4,11.9,30.19,West,266,0.0,1.0,56,0.00,,,0.00,HR-IXPWINDi_r2_v1.2.,2013-02-19 02:06:00,
2013-02-18 21:11:00,25.1,12.0,30.19,West,266,0.0,0.0,57,0.00,,,0.00,HR-IXPWINDi_r2_v1.2.,2013-02-19 02:11:00,
2013-02-18 21:17:00,24.7,10.9,30.19,West,266,0.0,0.0,55,0.00,,,0.00,HR-IXPWINDi_r2_v1.2.,2013-02-19 02:17:00,
2013-02-18 21:22:00,24.3,10.5,30.19,West,265,0.0,0.0,55,0.00,,,0.00,HR-IXPWINDi_r2_v1.2.,2013-02-19 02:22:00,
2013-02-18 21:27:00,24.4,10.2,30.19,West,265,0.0,0.0,54,0.00,,,0.00,HR-IXPWINDi_r2_v1.2.,2013-02-19 02:27:00,
2013-02-18 21:32:00,25.0,10.3,30.19,WSW,245,0.0,0.0,53,0.00,,,0.00,HR-IXPWINDi_r2_v1.2.,2013-02-19 02:32:00,
2013-02-18 21:37:00,25.0,12.3,30.19,WSW,245,0.0,0.0,58,0.00,,,0.00,HR-IXPWINDi_r2_v1.2.,2013-02-19 02:37:00,
2013-02-18 21:43:00,24.8,10.6,30.19,WSW,245,0.0,0.0,54,0.00,,,0.00,HR-IXPWINDi_r2_v1.2.,2013-02-19 02:43:00,
2013-02-18 21:48:00,25.3,10.6,30.19,WSW,245,1.0,1.0,53,0.00,,,0.00,HR-IXPWINDi_r2_v1.2.,2013-02-19 02:48:00,
2013-02-18 21:53:00,25.4,11.1,30.19,WSW,244,0.0,1.0,54,0.00,,,0.00,HR-IXPWINDi_r2_v1.2.,2013-02-19 02:53:00,
2013-02-18 21:58:00,25.2,11.3,30.19,SSW,205,0.0,1.0,55,0.00,,,0.00,HR-IXPWINDi_r2_v1.2.,2013-02-19 02:58:00,
2013-02-18 22:03:00,25.0,12.3,30.19,SSW,205,0.0,1.0,58,0.00,,,0.00,HR-IXPWINDi_r2_v1.2.,2013-02-19 03:03:00,
2013-02-18 22:08:00,24.8,11.4,30.19,SSW,199,0.0,2.0,56,0.00,,,0.00,HR-IXPWINDi_r2_v1.2.,2013-02-19 03:08:00,
2013-02-18 22:13:00,24.6,11.6,30.19,SSW,200,0.0,2.0,57,0.00,,,0.00,HR-IXPWINDi_r2_v1.2.,2013-02-19 03:13:00,
2013-02-18 22:18:00,24.4,11.0,30.19,SSW,200,0.0,0.0,56,0.00,,,0.00,HR-IXPWINDi_r2_v1.2.,2013-02-19 03:18:00,
2013-02-18 22:23:00,24.4,12.2,30.19,SSW,200,0.0,1.0,59,0.00,,,0.00,HR-IXPWINDi_r2_v1.2.,2013-02-19 03:23:00,
2013-02-18 22:29:00,24.9,10.6,30.19,South,186,1.0,2.0,54,0.00,,,0.00,HR-IXPWINDi_r2_v1.2.,2013-02-19 03:29:00,
2013-02-18 22:34:00,25.6,11.3,30.19,South,171,1.0,2.0,54,0.00,,,0.00,HR-IXPWINDi_r2_v1.2.,2013-02-19 03:34:00,
2013-02-18 22:39:00,25.4,11.5,30.19,South,171,0.0,2.0,55,0.00,,,0.00,HR-IXPWINDi_r2_v1.2.,2013-02-19 03:39:00,
2013-02-18 22:44:00,25.5,12.0,30.19,SSW,202,2.0,3.0,56,0.00,,,0.00,HR-IXPWINDi_r2_v1.2.,2013-02-19 03:44:00,
2013-02-18 22:49:00,26.0,11.3,30.19,South,184,2.0,3.0,53,0.00,,,0.00,HR-IXPWINDi_r2_v1.2.,2013-02-19 03:49:00,
2013-02-18 22:54:00,26.3,11.5,30.19,SSW,193,1.0,3.0,53,0.00,,,0.00,HR-IXPWINDi_r2_v1.2.,2013-02-19 03:54:00,
2013-02-18 23:00:00,26.4,12.0,30.19,South,181,0.0,3.0,54,0.00,,,0.00,HR-IXPWINDi_r2_v1.2.,2013-02-19 04:00:00,
2013-02-18 23:05:00,26.5,12.1,30.19,South,181,1.0,2.0,54,0.00,,,0.00,HR-IXPWINDi_r2_v1.2.,2013-02-19 04:05:00,
2013-02-18 23:10:00,26.6,10.9,30.19,South,176,2.0,3.0,51,0.00,,,0.00,HR-IXPWINDi_r2_v1.2.,2013-02-19 04:10:00,
2013-02-18 23:15:00,26.7,11.0,30.19,South,183,0.0,4.0,51,0.00,,,0.00,HR-IXPWINDi_r2_v1.2.,2013-02-19 04:15:00,
2013-02-18 23:20:00,26.7,11.0,30.19,South,169,1.0,4.0,51,0.00,,,0.00,HR-IXPWINDi_r2_v1.2.,2013-02-19 04:20:00,
2013-02-18 23:25:00,26.7,11.0,30.19,South,190,1.0,3.0,51,0.00,,,0.00,HR-IXPWINDi_r2_v1.2.,2013-02-19 04:25:00,
2013-02-18 23:30:00,26.7,10.6,30.19,SSW,192,2.0,5.0,50,0.00,,,0.00,HR-IXPWINDi_r2_v1.2.,2013-02-19 04:30:00,
2013-02-18 23:36:00,26.8,11.1,30.19,South,190,3.0,5.0,51,0.00,,,0.00,HR-IXPWINDi_r2_v1.2.,2013-02-19 04:36:00,
2013-02-18 23:41:00,26.9,10.8,30.19,South,183,1.0,6.0,50,0.00,,,0.00,HR-IXPWINDi_r2_v1.2.,2013-02-19 04:41:00,
2013-02-18 23:46:00,26.7,11.5,30.19,South,176,1.0,6.0,52,0.00,,,0.00,HR-IXPWINDi_r2_v1.2.,2013-02-19 04:46:00,
2013-02-18 23:51:00,26.9,11.2,30.20,SSE,160,1.0,3.0,51,0.00,,,0.00,HR-IXPWINDi_r2_v1.2.,2013-02-19 04:51:00,
2013-02-18 23:56:00,27.1,11.0,30.20,South,180,2.0,4.0,50,0.00,,,0.00,HR-IXPWINDi_r2_v1.2.,2013-02-19 04:56:00,